Flight Track Log - Related Links

Times and Time Zones

All times are in EDT time to prevent confusion due to time zone crossing. See the ABX601 flight status page for this flight to view local times or setup timezone preferences in your user account.

Time Position Orientation Groundspeed Altitude Reporting Facility
EDT Latitude Longitude Course Direction KTS MPH feet Rate Location/Type
04:02AM 39.0500 -84.6833 270° West 167 192 1,200  Level Cincinnati TRACON
04:03AM 39.0500 -84.7333 270° West 187 215 2,800 2,167 Climbing Cincinnati TRACON
04:04AM 39.0333 -84.8167 256° West 248 285 5,100 2,500 Climbing Cincinnati TRACON
04:05AM 38.9667 -84.8333 191° South 290 334 7,800 2,278 Climbing Cincinnati TRACON
04:07AM 38.8233 -84.7403 153° Southeast 315 362 12,200 2,182 Climbing Indianapolis Center
04:08AM 38.7236 -84.7147 169° South 357 411 14,600 2,430 Climbing Indianapolis Center
04:09AM 38.6161 -84.6847 168° South 377 434 17,100 2,331 Climbing Indianapolis Center
04:10AM 38.5081 -84.6539 167° South 392 451 19,300 2,200 Climbing Indianapolis Center
04:11AM 38.3989 -84.6217 167° South 402 463 21,500 2,100 Climbing Indianapolis Center
04:12AM 38.2847 -84.5883 167° South 416 479 23,500 1,884 Climbing Indianapolis Center
04:13AM 38.1681 -84.5542 167° South 426 490 25,300 1,686 Climbing Indianapolis Center
04:14AM 38.0478 -84.5203 167° South 437 503 26,900 1,550 Climbing Indianapolis Center
04:15AM 37.9233 -84.4853 167° South 454 522 28,400 1,488 Climbing Indianapolis Center
04:16AM 37.7986 -84.4369 163° South 467 537 29,900 1,587 Climbing Indianapolis Center
04:17AM 37.6753 -84.3872 162° South 467 537 31,600 1,636 Climbing Indianapolis Center
04:18AM 37.5525 -84.3372 162° South 465 535 33,200 1,587 Climbing Indianapolis Center
04:19AM 37.4314 -84.2889 162° South 458 527 34,800 1,500 Climbing Indianapolis Center
04:20AM 37.3108 -84.2425 163° South 455 524 36,200 1,091 Climbing Indianapolis Center
04:21AM 37.1911 -84.1961 163° South 451 519 37,000 397 Climbing Indianapolis Center
04:22AM 37.0683 -84.1475 162° South 458 527 37,000  Level Indianapolis Center
04:23AM 36.9258 -84.0917 163° South 460 529 37,000  Level Indianapolis Center
04:24AM 36.8053 -84.0461 163° South 455 524 37,000  Level Indianapolis Center
04:25AM 36.6839 -84.0003 163° South 455 524 37,000  Level Indianapolis Center
04:26AM 36.5633 -83.9547 163° South 454 522 37,000  Level Indianapolis Center
04:27AM 36.4508 -83.9103 162° South 455 524 37,000  Level Indianapolis Center
04:28AM 36.3294 -83.8653 163° South 454 522 37,000  Level Indianapolis Center
04:29AM 36.2078 -83.8183 163° South 455 524 37,000  Level Indianapolis Center
04:30AM 36.0864 -83.7725 163° South 455 524 37,000  Level Indianapolis Center
04:30AM 36.0142 -83.7461 164° South 459 528 37,000  Level Atlanta Center
04:31AM 35.8931 -83.7031 164° South 459 528 37,000  Level Atlanta Center
04:32AM 35.7719 -83.6547 162° South 459 528 37,000  Level Atlanta Center
04:33AM 35.6508 -83.6119 164° South 459 528 37,000  Level Atlanta Center
04:34AM 35.5297 -83.5667 163° South 459 528 37,000  Level Atlanta Center
04:35AM 35.4106 -83.5214 163° South 454 522 37,000  Level Atlanta Center
04:36AM 35.2892 -83.4789 164° South 454 522 37,000  Level Atlanta Center
04:37AM 35.1597 -83.4292 163° South 454 522 37,000  Level Atlanta Center
04:38AM 35.0383 -83.3842 163° South 454 522 37,000  Level Atlanta Center
04:39AM 34.9172 -83.3422 164° South 454 522 37,000  Level Atlanta Center
04:40AM 34.7958 -83.2978 163° South 454 522 37,000  Level Atlanta Center
04:41AM 34.6767 -83.2508 162° South 454 522 37,000  Level Atlanta Center
04:42AM 34.5636 -83.2064 162° South 461 531 37,000  Level Atlanta Center
04:43AM 34.4381 -83.1647 165° South 461 531 37,000  Level Atlanta Center
04:44AM 34.3189 -83.1183 162° South 455 524 37,000  Level Atlanta Center
04:45AM 34.1953 -83.0769 165° South 461 531 37,000  Level Atlanta Center
04:46AM 34.0614 -83.0283 163° South 461 531 37,000  Level Atlanta Center
04:47AM 33.9378 -82.9847 164° South 461 531 37,000  Level Atlanta Center
04:48AM 33.8144 -82.9386 163° South 461 531 37,000  Level Atlanta Center
04:49AM 33.6908 -82.8953 164° South 461 531 37,000  Level Atlanta Center
04:50AM 33.5694 -82.8519 163° South 461 531 37,000  Level Atlanta Center
04:51AM 33.4519 -82.8114 164° South 455 524 37,000  Level Atlanta Center
04:52AM 33.3242 -82.7683 164° South 461 531 37,000  Level Atlanta Center
04:53AM 33.2175 -82.7328 164° South 456 525 37,000  Level Atlanta Center
04:54AM 33.0939 -82.6900 164° South 456 525 37,000  Level Atlanta Center
04:56AM 32.8761 -82.6106 163° South 455 524 37,000  Level Jacksonville Center
04:57AM 32.7569 -82.5714 165° South 455 524 37,000  Level Jacksonville Center
04:58AM 32.6336 -82.5275 163° South 455 524 37,000  Level Jacksonville Center
04:59AM 32.5208 -82.4861 163° South 460 529 37,000  Level Jacksonville Center
05:00AM 32.3994 -82.4447 164° South 460 529 37,000  Level Jacksonville Center
05:01AM 32.2806 -82.4036 164° South 455 524 37,000  Level Jacksonville Center
05:02AM 32.1569 -82.3575 162° South 455 524 37,000  Level Jacksonville Center
05:03AM 32.0233 -82.3192 166° South 455 524 37,000  Level Jacksonville Center
05:04AM 31.9019 -82.2758 163° South 455 524 37,000  Level Jacksonville Center
05:05AM 31.7786 -82.2328 163° South 455 524 37,000  Level Jacksonville Center
05:06AM 31.6572 -82.1922 164° South 455 524 37,000  Level Jacksonville Center
05:07AM 31.5506 -82.1589 165° South 447 514 37,000  Level Jacksonville Center
05:08AM 31.4314 -82.1158 163° South 447 514 37,000  Level Jacksonville Center
05:09AM 31.3078 -82.0756 164° South 452 520 37,000  Level Jacksonville Center
05:10AM 31.1886 -82.0328 163° South 452 520 37,000  Level Jacksonville Center
05:11AM 31.0672 -81.9928 164° South 452 520 37,000  Level Jacksonville Center
05:12AM 30.9478 -81.9550 165° South 452 520 37,000  Level Jacksonville Center
05:13AM 30.8244 -81.9128 164° South 452 520 37,000  Level Jacksonville Center
05:14AM 30.7050 -81.8731 164° South 452 520 37,000  Level Jacksonville Center
05:15AM 30.5836 -81.8333 164° South 452 520 37,000  Level Jacksonville Center
05:16AM 30.4494 -81.7817 162° South 457 526 37,000  Level Jacksonville Center
05:17AM 30.3261 -81.7422 165° South 463 533 37,000  Level Jacksonville Center
05:18AM 30.2047 -81.7053 165° South 455 524 37,000  Level Jacksonville Center
05:19AM 30.0831 -81.6658 164° South 455 524 37,000  Level Jacksonville Center
05:20AM 29.9617 -81.6292 165° South 455 524 37,000  Level Jacksonville Center
05:21AM 29.8444 -81.5900 164° South 455 524 37,000  Level Jacksonville Center
05:22AM 29.7250 -81.5533 165° South 455 524 37,000  Level Jacksonville Center
05:23AM 29.6078 -81.5142 164° South 450 518 37,000  Level Jacksonville Center
05:25AM 29.4017 -81.4456 164° South 449 517 37,000  Level Miami Center
05:26AM 29.2861 -81.4097 165° South 449 517 37,000  Level Miami Center
05:27AM 29.1683 -81.3717 164° South 449 517 37,000  Level Miami Center
05:28AM 29.0506 -81.3383 166° South 449 517 37,000  Level Miami Center
05:29AM 28.9350 -81.2981 163° South 449 517 37,000  Level Miami Center
05:30AM 28.8194 -81.2628 165° South 443 510 37,000 -50 Level Miami Center
05:31AM 28.7039 -81.2225 163° South 443 510 36,900  Descending Miami Center
05:32AM 28.5778 -81.1797 163° South 429 494 37,000 50 Climbing Miami Center
05:33AM 28.4581 -81.1422 165° South 434 499 37,000  Level Miami Center
05:34AM 28.3442 -81.1072 165° South 434 499 37,000 -50 Level Miami Center
05:35AM 28.2325 -81.0722 165° South 428 493 36,900  Descending Miami Center
05:36AM 28.1167 -81.0375 165° South 428 493 37,000 51 Climbing Miami Center
05:37AM 28.0011 -80.9978 163° South 428 493 37,000  Level Miami Center
05:38AM 27.8872 -80.9633 165° South 428 493 37,000 -49 Level Miami Center
05:39AM 27.7756 -80.9286 165° South 428 493 36,900 -50 Descending Miami Center
05:40AM 27.6617 -80.8942 165° South 428 493 36,900 50 Level Miami Center
05:41AM 27.5478 -80.8597 165° South 428 493 37,000 51 Climbing Miami Center
05:42AM 27.4319 -80.8228 164° South 433 498 37,000 -51 Level Miami Center
05:43AM 27.3161 -80.7861 164° South 428 493 36,900 -1,279 Descending Miami Center
05:44AM 27.2019 -80.7567 167° South 428 493 34,400 -2,926 Descending Miami Center
05:45AM 27.0797 -80.7175 164° South 439 505 31,000 -3,051 Descending Miami Center
05:46AM 26.9639 -80.6811 164° South 439 505 28,400 -2,695 Descending Miami Center
05:47AM 26.8436 -80.6444 165° South 439 505 25,700 -2,628 Descending Miami Center
05:48AM 26.7278 -80.6058 163° South 439 505 23,100 -2,800 Descending Miami Center
05:49AM 26.6117 -80.5697 164° South 433 498 20,100 -2,831 Descending Miami Center
05:49AM 26.5536 -80.5539 166° South 429 494 18,900 -2,323 Descending Miami Center
05:50AM 26.4978 -80.5358 164° South 433 498 17,700 -2,571 Descending Miami Center
05:50AM 26.4481 -80.5228 167° South 416 479 16,500 -2,000 Descending Miami Center
05:51AM 26.3900 -80.5025 163° South 412 474 15,700 -1,397 Descending Miami Center
05:52AM 26.3258 -80.4842 166° South 371 427 14,800 -1,700 Descending Miami Center
05:52AM 26.2883 -80.4717 163° South 393 452 14,000 -2,250 Descending Miami Center
05:53AM 26.2292 -80.4211 143° Southeast 370 426 12,400 -1,900 Descending Miami Center
05:53AM 26.2189 -80.4069 129° Southeast 363 418 12,100 -1,839 Descending Miami Center
05:54AM 26.1581 -80.3425 136° Southeast 365 420 10,500 -1,862 Descending Miami Center
05:54AM 26.1478 -80.3283 129° Southeast 363 418 10,300 -545 Descending Miami Center
05:55AM 26.0947 -80.2761 139° Southeast 317 365 10,000 -492 Descending Miami Center
05:55AM 26.0847 -80.2572 121° Southeast 343 395 9,800 -2,034 Descending Miami Center
05:56AM 26.0419 -80.2119 136° Southeast 278 320 8,000 -2,237 Descending Miami Center
05:56AM 26.0297 -80.1956 130° Southeast 308 354 7,600 -2,060 Descending Miami Center
05:57AM 25.9872 -80.1411 131° Southeast 260 299 5,700 -2,066 Descending Miami Center
05:57AM 25.9853 -80.1297 101° East 277 319 5,500 -1,727 Descending Miami Center
05:58AM 25.9489 -80.0731 126° Southeast 237 273 3,800 -1,831 Descending Miami Center
05:58AM 25.9489 -80.0708 90° East 253 291 3,700 -787 Descending Miami Center
05:59AM 25.8942 -80.0878 196° South 198 228 3,000 -700 Descending Miami Center
05:59AM 25.8964 -80.0856 42° Northeast 182 209 3,000  Level Miami Center
05:59AM 25.8625 -80.1056 208° Southwest 185 213 3,000  Level Miami Center
06:01AM 25.8014 -80.1361 204° Southwest 164 189 3,000 -328 Level Miami Center
06:02AM 25.7986 -80.1636 264° West 154 177 2,300 -1,175 Descending Miami Center
06:02AM 25.8039 -80.2078 278° West 142 163 1,100 -953 Descending Miami Center
06:03AM 25.8011 -80.2400 265° West 124 143 600 -566 Descending Miami Center
06:05AM 25.7833 -80.2833 197° South  Level FlightAware Approximate
06:12AM 25.7954 -80.2901 197° South  Level Estimated

Login

Don't have an account? Register now (free) for customized features, flight alerts, and more!